RH
43 39 36 30 32 29 32 29 36 20 23 19 29 17 23 26 33 43 56 64 66 75 88 95 97 97 98 93 90 95 82 49 32 24 17 12 10 9 10 11 12 12 15 21
41 41 38 34 29 26 23 34 32 30 21 28 20 18 22 27 32 41 50 53 63 82 92 98 98 98 87 90 85 79 55 36 26 18 14 11 9 10 12 13 14 15 21 32
39 27 34 39 20 21 20 17 17 34 25 33 25 21 29 28 29 39 45 58 73 87 96 100 93 95 80 91 90 64 41 29 20 15 12 10 10 11 13 15 16 20 28 47
27 24 65 24 18 15 18 16 16 14 13 17 24 29 38 32 31 28 39 56 79 94 99 96 99 94 96 95 73 49 34 23 17 13 10 9 10 13 16 18 21 24 35 58
24 40 28 21 20 17 15 13 11 12 14 19 28 43 41 30 27 30 42 64 82 95 100 100 100 98 96 84 57 41 26 19 14 10 8 9 12 16 20 22 25 29 40 65
38 38 82 21 17 14 14 34 16 17 18 22 30 39 49 34 34 40 53 66 85 100 100 99 99 96 90 74 46 31 23 15 10 7 9 12 16 22 23 26 28 36 53 73
54 50 36 29 24 22 33 32 24 24 25 32 34 37 34 35 44 61 73 82 98 100 99 98 97 95 94 68 46 24 15 9 7 9 12 16 23 24 26 29 34 46 59 69
40 45 50 22 23 27 32 28 35 38 45 53 54 58 62 69 79 86 94 99 97 98 99 97 96 93 77 39 20 14 8 7 9 12 17 24 26 28 32 37 43 55 64 62
37 37 26 27 30 32 31 33 43 51 59 63 65 70 77 84 95 98 100 100 98 98 96 95 93 74 29 19 12 7 8 10 13 17 26 30 30 34 40 45 53 58 49 28
33 27 27 33 35 36 37 38 38 44 52 54 60 68 78 89 91 100 98 99 98 96 95 85 54 24 16 9 8 9 12 15 19 24 30 34 37 40 46 52 54 44 27 20
31 34 39 39 40 45 48 50 52 52 52 54 58 65 83 95 98 99 98 97 96 94 88 51 32 16 8 9 11 15 21 24 25 28 34 36 44 48 56 58 53 36 25 20
43 40 47 50 53 54 57 59 60 60 61 68 75 86 99 100 100 99 98 95 94 90 65 42 14 9 11 14 19 28 32 31 28 33 42 45 51 54 61 64 58 43 27 21
46 53 57 59 61 59 56 55 55 57 64 78 89 100 100 98 98 96 95 93 72 46 23 10 11 12 15 21 31 40 40 36 31 33 50 54 58 62 65 73 65 53 35 26
53 60 64 66 67 68 66 66 68 72 94 100 99 100 98 96 95 91 65 42 20 11 11 12 13 14 20 36 45 48 49 43 36 37 56 63 66 66 70 80 78 70 62 49
62 72 76 78 73 71 73 80 99 99 100 99 98 97 95 92 84 55 27 12 11 13 14 13 14 20 35 50 54 48 47 46 43 41 59 73 77 76 72 84 91 84 82 79
80 84 79 72 75 85 97 100 100 99 97 96 96 92 82 54 24 12 12 14 14 15 15 15 20 27 37 49 56 63 64 59 51 46 62 74 77 81 76 81 94 96 93 93
78 76 84 89 100 100 100 98 98 97 95 92 80 54 26 14 13 15 15 15 15 16 16 17 18 25 35 45 56 70 78 75 65 55 59 82 86 86 83 83 94 100 100 100
87 96 100 100 100 99 98 97 95 91 74 41 19 14 14 16 16 17 18 18 18 18 17 19 20 26 40 52 49 54 66 64 73 71 65 86 94 93 88 89 98 100 100 100
89 97 100 99 98 96 92 83 63 37 20 15 16 18 20 21 20 19 20 19 22 21 19 20 21 27 46 68 66 67 78 70 72 76 80 92 96 95 94 98 100 100 100 100
96 100 99 95 88 78 65 49 33 21 18 20 21 21 21 22 22 23 24 22 23 19 19 19 20 40 82 86 76 87 97 71 88 90 98 100 100 98 98 99 100 100 100 100
98 95 88 79 76 76 65 41 25 22 23 22 21 22 24 24 25 27 26 24 21 18 17 18 22 70 80 74 89 90 95 71 83 93 100 100 100 100 98 94 92 99 100 100
81 77 78 81 74 63 45 29 24 22 22 25 28 28 28 30 29 28 23 18 15 14 14 16 23 30 36 95 99 100 88 84 90 95 100 100 100 98 80 70 67 70 74 79
88 78 75 74 62 41 29 26 24 26 30 33 33 35 33 30 25 18 14 12 11 9 9 9 12 32 68 100 100 88 64 94 97 95 98 100 100 78 56 50 46 46 46 49
76 71 79 68 43 29 26 28 33 35 35 40 41 32 26 20 14 12 11 9 9 10 11 12 16 44 88 100 98 84 100 97 98 100 100 100 100 95 67 43 40 39 41 43
86 78 57 45 34 31 32 34 38 43 47 39 30 21 15 13 10 8 8 10 11 14 16 18 59 98 100 100 100 100 100 99 100 100 100 100 100 99 73 47 37 32 34 40
64 56 45 38 38 39 44 47 51 46 36 26 17 15 12 9 9 10 11 11 12 15 20 33 98 100 100 100 100 100 99 98 100 100 100 100 100 99 79 39 26 20 20 22
54 43 42 46 54 57 60 55 40 29 19 16 14 10 9 11 12 13 12 12 13 19 29 76 100 100 100 100 100 100 100 99 97 98 99 100 100 100 96 50 25 25 24 23
Wind_Speed
19 16 14 14 12 17 21 19 13 16 15 13 15 19 18 15 16 19 21 25 27 28 28 28 30 32 33 37 39 34 31 32 35 38 40 41 41 41 40 40 40 40 40 36
18 19 19 18 18 19 20 21 24 23 28 21 21 17 17 15 16 17 19 22 24 27 27 27 30 32 37 35 33 30 31 33 37 39 40 40 40 40 40 41 41 41 38 34
7 14 15 15 24 26 26 26 27 23 21 22 21 17 16 16 16 16 19 20 23 25 25 29 31 33 35 31 29 30 32 35 38 39 40 40 40 41 40 41 40 39 37 34
6 4 3 13 16 16 20 21 23 22 24 22 19 17 17 16 15 17 19 20 22 24 27 31 33 33 31 28 29 30 34 37 39 39 40 40 41 40 39 39 39 37 35 33
5 7 12 16 18 17 18 17 18 18 17 16 15 16 17 14 18 19 20 22 24 26 29 32 33 31 26 26 28 32 36 38 39 40 40 40 39 38 37 37 36 36 33 30
8 4 4 4 10 12 13 12 9 6 8 9 12 15 12 21 21 19 19 21 25 29 32 32 34 26 23 26 30 34 37 38 39 40 40 39 37 36 36 36 35 32 30 26
16 10 7 12 14 12 3 4 8 14 15 15 13 19 24 24 21 20 21 22 28 32 33 35 27 21 22 27 33 35 37 38 39 39 39 36 34 34 34 34 33 31 28 25
8 6 6 2 3 4 9 17 15 16 16 18 22 23 24 23 24 23 25 26 30 36 35 29 22 20 25 31 33 35 37 38 39 38 36 33 33 32 32 32 30 28 25 21
8 5 10 15 16 14 16 17 17 18 20 22 23 25 25 26 24 26 28 32 34 35 25 19 18 23 29 31 34 35 37 38 39 36 33 32 32 31 30 29 27 25 21 20
14 13 12 17 19 20 20 21 22 23 25 26 28 29 29 27 29 31 31 38 30 19 15 18 22 27 30 33 35 37 38 38 35 33 32 32 31 30 28 27 25 23 21 21
17 17 17 19 19 20 22 23 25 26 26 27 28 28 27 28 30 32 33 26 16 13 17 21 25 29 31 34 36 38 36 35 33 33 32 32 29 28 27 26 24 23 22 21
17 17 17 21 22 24 25 26 24 25 24 23 23 24 25 28 29 30 27 14 13 17 20 24 27 29 33 35 37 35 34 33 32 32 32 31 28 28 27 25 24 23 22 22
19 20 22 23 23 23 23 24 25 24 22 22 22 22 27 29 25 18 17 16 18 21 24 26 29 32 35 35 33 32 32 32 33 33 31 29 28 28 27 25 24 22 22 22
21 22 22 21 22 24 24 23 22 22 20 21 21 24 21 19 13 13 16 18 20 22 25 29 32 34 35 33 33 33 33 33 34 34 31 30 29 28 27 26 24 22 23 22
21 20 21 24 24 23 22 19 17 17 19 22 20 16 13 13 15 17 18 20 22 25 29 32 34 33 33 33 35 35 34 33 35 34 31 30 30 29 28 26 25 23 22 22
23 24 24 21 19 18 17 16 17 18 17 15 11 11 13 14 14 17 20 23 26 29 31 34 35 35 35 36 37 37 37 36 34 34 32 32 31 29 28 27 26 24 22 22
19 17 17 16 16 14 12 13 12 10 7 9 11 12 12 14 17 21 24 28 30 32 34 36 39 38 38 38 38 39 39 37 35 33 34 33 31 30 29 27 26 25 23 22
14 13 13 12 11 11 9 8 7 8 9 10 11 13 15 19 22 25 29 34 36 38 39 40 42 41 40 40 40 39 38 39 38 35 34 33 31 30 29 27 26 25 23 22
9 8 8 9 9 7 5 6 7 8 10 11 13 16 19 23 28 32 36 40 41 42 42 43 44 43 42 41 41 39 38 41 36 34 32 31 30 28 27 26 26 26 26 25
6 6 6 4 4 5 6 8 10 11 13 15 19 23 27 30 34 38 41 43 44 44 44 45 46 45 43 42 42 40 38 37 34 32 30 29 28 27 25 24 24 25 25 25
6 5 5 5 6 8 10 12 13 15 19 23 27 31 35 38 42 44 45 47 45 46 47 45 44 43 45 44 40 38 40 37 33 32 30 28 26 25 24 23 23 24 25 26
5 5 7 9 12 14 16 17 19 22 26 30 34 38 42 44 45 47 48 50 49 48 46 45 44 42 40 39 33 34 40 35 31 29 28 27 25 23 24 25 25 25 25 26
9 9 11 14 17 18 19 21 24 27 31 35 39 43 45 48 50 53 53 50 49 48 46 44 42 39 31 34 35 40 40 34 31 29 27 27 25 24 25 25 25 25 25 25
12 15 18 20 21 22 24 25 28 32 37 42 45 46 49 52 52 50 51 49 47 44 41 39 36 34 31 33 39 36 32 31 30 30 28 27 26 25 25 25 24 23 23 23
17 20 21 22 24 25 28 31 34 38 43 45 47 50 51 52 53 52 50 47 45 41 37 35 30 26 24 28 32 32 30 29 28 28 28 28 26 25 24 23 22 22 21 21
20 22 23 24 27 30 33 36 41 44 47 50 51 52 53 51 49 47 45 44 41 38 33 29 25 24 24 27 28 28 28 27 27 27 27 27 27 25 23 23 22 22 21 20
23 24 26 29 31 34 38 42 45 47 49 51 52 50 48 46 45 44 43 41 37 33 28 25 24 25 26 27 26 26 26 25 26 27 27 27 27 25 23 22 22 21 23 24
Wind_Direction
239 250 258 250 248 238 231 243 234 265 265 275 261 279 278 261 249 249 253 260 268 269 264 269 275 281 281 299 300 300 302 304 308 313 316 317 319 320 320 319 319 319 319 316
247 250 253 252 249 248 250 244 254 261 275 274 284 276 273 271 264 260 260 265 268 267 268 271 275 286 297 298 301 300 302 309 315 317 318 318 318 318 318 318 320 320 318 315
247 252 255 267 257 256 259 264 266 258 284 274 287 277 272 273 273 264 266 268 266 265 267 273 284 289 303 299 297 301 308 314 316 317 318 318 318 318 317 317 318 317 316 312
252 234 222 258 272 267 259 267 270 276 281 283 274 272 276 280 276 278 274 269 266 266 272 279 285 289 294 294 298 306 313 316 317 317 317 317 316 315 315 316 316 315 314 309
222 221 275 281 277 276 277 281 287 284 281 277 273 272 279 277 285 282 270 267 266 266 270 276 283 287 291 296 305 313 316 316 317 316 316 314 314 314 314 315 317 314 311 307
219 223 245 259 274 278 291 292 294 289 292 286 282 272 280 295 298 284 277 276 267 266 271 280 282 285 295 305 313 314 314 315 315 314 313 314 314 314 315 316 317 313 309 305
241 241 265 269 276 287 276 301 308 305 300 302 276 285 293 296 294 286 288 280 272 266 269 280 277 289 305 310 310 312 313 314 313 313 313 313 313 314 315 315 315 311 308 306
235 231 269 255 281 299 290 297 296 291 294 288 289 294 298 296 297 287 287 281 278 272 274 274 286 306 311 309 311 312 313 313 313 313 313 313 314 313 313 315 314 311 309 304
239 245 277 289 298 291 287 285 280 278 284 286 287 290 292 290 284 274 276 278 281 269 269 283 305 314 307 310 312 313 314 313 313 314 312 311 312 312 312 315 315 312 308 301
273 283 285 288 286 285 284 282 279 276 277 279 280 281 283 282 278 275 282 279 258 272 287 315 316 310 313 313 314 315 315 315 314 311 310 310 309 310 312 314 313 310 306 302
285 288 287 286 286 287 287 287 286 284 284 283 282 281 281 276 278 278 272 259 268 297 323 317 314 313 313 313 314 315 315 315 314 312 310 309 307 309 311 311 310 308 305 302
280 285 282 283 286 288 290 290 289 289 288 285 280 281 275 276 271 263 259 272 313 325 319 317 313 313 313 314 314 314 313 314 314 314 311 307 306 307 308 306 307 306 304 300
280 282 284 286 289 290 291 292 293 292 291 290 297 293 276 261 254 266 296 329 331 322 315 312 313 313 314 314 313 313 313 315 315 314 312 306 306 305 304 303 305 304 303 301
280 282 284 287 290 291 291 289 287 290 291 285 281 274 265 269 294 334 336 326 316 312 311 313 315 317 316 314 313 311 312 313 314 315 313 307 306 304 301 300 301 303 303 303
277 281 284 290 291 289 289 291 294 284 276 266 263 266 285 324 339 333 321 311 312 313 315 316 317 317 316 313 310 310 313 314 315 313 310 307 305 302 298 295 296 299 301 303
278 284 288 289 290 292 295 294 280 270 268 274 293 322 337 337 318 308 309 313 316 316 315 315 317 317 313 311 310 310 312 312 313 311 309 306 304 302 298 292 290 291 295 300
282 285 289 292 304 303 290 281 269 272 299 337 341 335 318 308 310 312 312 312 314 316 316 315 313 312 310 310 309 308 310 311 310 309 306 304 301 299 297 292 287 287 291 294
285 287 289 286 281 269 254 269 298 330 338 326 311 306 308 309 310 312 314 315 317 317 316 312 310 309 308 308 309 310 310 309 308 305 302 300 299 296 293 289 287 286 286 288
280 280 268 253 247 261 289 316 319 311 304 303 304 305 308 312 315 316 315 314 314 314 313 306 305 305 305 305 307 306 306 313 306 302 299 297 297 296 294 288 284 283 284 284
279 242 229 243 270 294 301 303 304 302 301 303 306 309 312 314 313 313 311 310 310 310 306 303 301 302 302 302 304 304 306 310 303 303 299 296 296 295 293 291 288 287 287 285
241 248 267 278 282 294 304 308 307 307 308 309 310 312 314 314 313 311 309 308 309 304 302 299 295 294 294 298 299 301 308 307 301 299 297 296 293 292 292 292 289 286 286 286
230 246 269 284 297 304 307 308 309 309 310 313 314 313 311 310 310 309 310 309 308 306 302 298 295 293 294 294 287 299 305 304 304 300 297 295 290 291 293 292 290 289 287 286
247 270 285 296 301 303 303 304 307 309 310 310 309 310 311 312 313 313 312 311 309 308 304 301 296 293 288 286 297 304 299 297 302 299 297 293 290 293 294 294 292 291 289 288
280 286 291 295 299 301 303 306 305 306 308 310 312 312 313 313 313 314 313 313 311 309 306 302 298 293 279 284 299 296 296 299 300 298 294 291 288 290 295 295 293 290 290 289
281 287 292 296 299 302 303 304 306 309 311 311 313 315 315 316 316 315 314 312 310 308 304 300 298 292 284 285 288 289 294 300 300 297 295 292 291 291 293 294 295 295 293 291
287 291 295 298 302 304 306 309 310 312 313 315 316 316 317 317 317 316 315 312 309 305 301 296 290 285 287 290 286 289 299 301 300 299 299 297 293 290 292 294 296 294 293 294
293 298 302 305 306 308 309 311 312 314 315 315 317 318 319 319 320 319 318 316 312 305 299 290 286 284 286 285 284 292 299 303 305 303 300 298 294 290 289 292 295 299 300 299